Time,TemperatureF,DewpointF,PressureIn,WindDirection,WindDirectionDegrees,WindSpeedMPH,WindSpeedGustMPH,Humidity,HourlyPrecipIn,Conditions,Clouds,dailyrainin,SoftwareType,DateUTC
2013-07-31 04:00:00,55.0,-99.9,30.03,SSE,160,13.0,-999.0,-999,-99.99,,,-99.99,,2013-07-31 04:00:00,
2013-07-31 04:32:00,55.0,-99.9,30.03,SSE,160,13.0,-999.0,-999,-99.99,,,-99.99,,2013-07-31 04:32:00,
2013-07-31 04:42:00,55.0,-99.9,30.03,SSE,160,13.0,-999.0,-999,-99.99,,,-99.99,,2013-07-31 04:42:00,
2013-07-31 04:52:00,55.0,-99.9,30.03,SSE,160,13.0,-999.0,-999,-99.99,,,-99.99,,2013-07-31 04:52:00,
2013-07-31 12:00:00,60.0,-99.9,30.01,South,180,13.0,-999.0,-999,-99.99,,,-99.99,,2013-07-31 12:00:00,
2013-07-31 13:00:00,61.0,-99.9,30.01,South,180,13.0,-999.0,-999,-99.99,,,-99.99,,2013-07-31 13:00:00,
2013-07-31 13:33:00,61.0,-99.9,30.01,South,180,13.0,-999.0,-999,-99.99,,,-99.99,,2013-07-31 13:33:00,
2013-07-31 13:43:00,61.0,-99.9,30.01,South,180,13.0,-999.0,-999,-99.99,,,-99.99,,2013-07-31 13:43:00,
2013-07-31 13:53:00,61.0,-99.9,30.01,South,180,13.0,-999.0,-999,-99.99,,,-99.99,,2013-07-31 13:53:00,
2013-07-31 14:00:00,63.0,-99.9,30.01,South,170,13.0,-999.0,-999,-99.99,,,-99.99,,2013-07-31 14:00:00,
2013-07-31 14:43:00,63.0,-99.9,30.01,South,170,13.0,-999.0,-999,-99.99,,,-99.99,,2013-07-31 14:43:00,
2013-07-31 14:53:00,63.0,-99.9,30.01,South,170,13.0,-999.0,-999,-99.99,,,-99.99,,2013-07-31 14:53:00,
2013-07-31 15:00:00,65.0,-99.9,30.00,ESE,120,12.0,-999.0,-999,-99.99,,,-99.99,,2013-07-31 15:00:00,
2013-07-31 15:44:00,65.0,-99.9,30.00,ESE,120,12.0,-999.0,-999,-99.99,,,-99.99,,2013-07-31 15:44:00,
2013-07-31 15:53:00,65.0,-99.9,30.00,ESE,120,12.0,-999.0,-999,-99.99,,,-99.99,,2013-07-31 15:53:00,
2013-07-31 16:00:00,70.0,-99.9,29.99,South,180,9.0,-999.0,-999,-99.99,,,-99.99,,2013-07-31 16:00:00,
2013-07-31 16:44:00,70.0,-99.9,29.99,South,180,9.0,-999.0,-999,-99.99,,,-99.99,,2013-07-31 16:44:00,
2013-07-31 16:53:00,70.0,-99.9,29.99,South,180,9.0,-999.0,-999,-99.99,,,-99.99,,2013-07-31 16:53:00,
2013-07-31 17:00:00,73.0,-99.9,29.98,South,190,10.0,-999.0,-999,-99.99,,,-99.99,,2013-07-31 17:00:00,
2013-07-31 17:43:00,73.0,-99.9,29.98,South,190,10.0,-999.0,-999,-99.99,,,-99.99,,2013-07-31 17:43:00,
2013-07-31 17:53:00,73.0,-99.9,29.98,South,190,10.0,-999.0,-999,-99.99,,,-99.99,,2013-07-31 17:53:00,
2013-07-31 18:00:00,74.0,-99.9,29.95,SSE,150,10.0,-999.0,-999,-99.99,,,-99.99,,2013-07-31 18:00:00,
2013-07-31 18:33:00,74.0,-99.9,29.95,SSE,150,10.0,-999.0,-999,-99.99,,,-99.99,,2013-07-31 18:33:00,
2013-07-31 18:43:00,74.0,-99.9,29.95,SSE,150,10.0,-999.0,-999,-99.99,,,-99.99,,2013-07-31 18:43:00,
2013-07-31 18:52:00,74.0,-99.9,29.95,SSE,150,10.0,-999.0,-999,-99.99,,,-99.99,,2013-07-31 18:52:00,
2013-07-31 19:00:00,74.0,-99.9,29.92,SW,230,14.0,-999.0,-999,-99.99,,,-99.99,,2013-07-31 19:00:00,
2013-07-31 19:43:00,74.0,-99.9,29.92,SW,230,14.0,-999.0,-999,-99.99,,,-99.99,,2013-07-31 19:43:00,
2013-07-31 19:53:00,74.0,-99.9,29.92,SW,230,14.0,-999.0,-999,-99.99,,,-99.99,,2013-07-31 19:53:00,
2013-07-31 22:00:00,69.0,-99.9,29.91,SSE,150,9.0,-999.0,-999,-99.99,,,-99.99,,2013-07-31 22:00:00,
2013-07-31 22:43:00,69.0,-99.9,29.91,SSE,150,9.0,-999.0,-999,-99.99,,,-99.99,,2013-07-31 22:43:00,
2013-07-31 22:53:00,69.0,-99.9,29.91,SSE,150,9.0,-999.0,-999,-99.99,,,-99.99,,2013-07-31 22:53:00,
2013-07-31 23:00:00,67.0,-99.9,29.94,WNW,300,24.0,-999.0,-999,-99.99,,,-99.99,,2013-07-31 23:00:00,
2013-07-31 23:43:00,67.0,-99.9,29.94,WNW,300,24.0,-999.0,-999,-99.99,,,-99.99,,2013-07-31 23:43:00,
2013-07-31 23:53:00,67.0,-99.9,29.94,WNW,300,24.0,-999.0,-999,-99.99,,,-99.99,,2013-07-31 23:53:00,